OPS 4682 DEB, 38444

Orbit data source: Space-Track

OPS 4682 DEB, 38444 is space debris in LEO originally from a launch on Sat, 03 Apr 1965 UTC launched from the Air Force Western Test Range (AFWTR). Debris objects in space refer to the collection of defunct objects orbiting the Earth. Examples of debris include non-operational satellites, rocket bodies, and fragments generated from explosions, collisions, or faulty payload assembly.

Loading next visibility...
Identifier
38444, 1965-027EZ
Orbit
LEO
Country
Flag of USUS
Related business
Manufacturer
Unknown
Mission
Spacecraft
Bus & Motor
Unknown
Mass
Unknown
Launch date (UTC)
1965-04-03 (61 years ago)
Launch vehicle
Unknown
Launch site
Air Force Western Test Range (AFWTR)
Object type
Payload
Rocket body
Debris
Shape & HBR
Unknown shape, 0.1 m
Radar Cross Section
Small (<0.1 m²)

Expand to show TLE details & history
Last TLE update: 3 days ago

TLE from 3 days ago
0 OPS 4682 DEB
1 38444U 65027EZ  25290.95565792  .00000620  00000-0  21435-2 0  9994
2 38444  90.2474   4.5245 0027760 104.0999 256.3209 12.96225313603049
Epoch: 2025-10-17T22:56Z
TLE epoch observation values (Epoch: 2025-10-17T22:56:08.844Z)
Latitude
Longitude
-6.20595°
Altitude
1,284.872 km
Speed
7.211 km/s
True Right ascension
00h 18m 05s
True Declination
0° 00' 00"
Sunlit
Object was in full shadow at epoch
Visualization orbit readout
Latitude
Unknown
Longitude
Unknown
Altitude
Unknown
Speed
Unknown
Apparent Right ascension
Unknown
Apparent Declination
Unknown
Sunlit
N/A
Visualization observer readout
Local Sidereal Time
11:38:06
Azimuth
Unknown
Elevation
Unknown
Doppler factor
Unknown
Orbital elements
Apogee altitude
1,295.287 km
Perigee altitude
1,252.802 km
Semi-major axis
7,652.182 km
Eccentricity
0.00278
Inclination
90.2474°
RAAN
4.5245°
Arg. of periapsis
104.0999°
True anomaly
256.01207°
Mean anomaly
256.3209°
Eccentric anomaly
256.16646°
Mean motion
3.24239 °/min
Orbital period
111.03 mins
BSTAR
0.0021435
Loading maneuver chart data...
Computing Atmospheric mass density...
Loading historical data...
Loading historical data...
Loading historical data...
Loading historical data...
Loading historical data...
Loading historical data...
Loading historical data...

Documentation

Showing up to 5 results
|